Torna al catalogo

STARLINK-34736

AttivoComunicazioniSSO
NORAD 64846·PAYLOAD·🇺🇸 United States

Lanciato Jul 19, 2025 da Vandenberg Space Force Base

Loading…

Prossimi Passaggi (prossime 24 ore)

TLE

AggiornatoSource: CelesTrak SupGP

Epoca: Sep 15, 2026, 03:02 UTC

1 64846C 25152E   26258.12687500 -.00011405  00000+0 -35399-3 0  2587
2 64846  97.2845 108.7756 0001705  95.8987 204.5797 15.33450141    10

Traccia STARLINK-34736 in tempo reale con AllMySat

Download on the App Store